Snowfall_Accumulation
0.0 0.0 0.0 0.0 0.0 0.0 0.0 0.0 0.0 0.0 0.0 0.0 0.0 0.0 0.0 0.0 0.0 0.0 0.0 0.0 0.0 0.0 0.0 0.0 0.0 0.0 0.0 0.0 0.0 0.0 0.0 0.0 0.0 0.0 0.0 0.0 0.0 0.0 0.0 0.0 0.0 0.0 0.0 0.0
0.0 0.0 0.0 0.0 0.0 0.0 0.0 0.0 0.0 0.0 0.0 0.0 0.0 0.0 0.0 0.0 0.0 0.0 0.0 0.0 0.0 0.0 0.0 0.0 0.0 0.0 0.0 0.0 0.0 0.0 0.0 0.0 0.0 0.0 0.0 0.0 0.0 0.0 0.0 0.0 0.0 0.0 0.0 0.0
0.0 0.0 0.0 0.0 0.0 0.0 0.0 0.0 0.0 0.0 0.0 0.0 0.0 0.0 0.0 0.0 0.0 0.0 0.0 0.0 0.0 0.0 0.0 0.0 0.0 0.0 0.0 0.0 0.0 0.0 0.0 0.0 0.0 0.0 0.0 0.0 0.0 0.0 0.0 0.0 0.0 0.0 0.0 0.0
0.0 0.0 0.0 0.0 0.0 0.0 0.0 0.0 0.0 0.0 0.0 0.0 0.0 0.0 0.0 0.0 0.0 0.0 0.0 0.0 0.0 0.0 0.0 0.0 0.0 0.0 0.0 0.0 0.0 0.0 0.0 0.0 0.0 0.0 0.0 0.0 0.0 0.0 0.0 0.0 0.0 0.0 0.0 0.0
0.0 0.0 0.0 0.0 0.0 0.0 0.1 0.0 0.0 0.0 0.0 0.0 0.0 0.0 0.0 0.0 0.0 0.0 0.0 0.0 0.0 0.0 0.0 0.0 0.0 0.0 0.0 0.0 0.0 0.0 0.0 0.0 0.0 0.0 0.0 0.0 0.0 0.0 0.0 0.0 0.0 0.0 0.0 0.0
0.0 0.0 0.0 0.0 0.0 0.0 0.0 0.0 0.0 0.0 0.0 1.0 0.0 0.0 0.0 0.0 0.0 0.0 0.0 0.0 0.0 0.0 0.0 0.0 0.0 0.0 0.0 0.0 0.0 0.0 0.0 0.0 0.0 0.0 0.0 0.0 0.0 0.0 0.0 0.0 0.0 0.0 0.0 0.0
0.0 0.0 0.0 0.0 1.4 0.0 0.0 0.0 1.4 1.1 1.0 0.0 0.0 0.0 0.0 0.0 0.0 0.0 0.0 0.0 0.0 0.0 0.0 0.0 0.0 0.0 0.0 0.0 0.0 0.0 0.0 0.0 0.0 0.0 0.0 0.0 0.0 0.0 0.0 0.0 0.0 0.0 0.0 0.0
0.6 0.8 1.9 0.6 4.2 4.7 0.1 0.5 3.8 4.8 0.6 0.0 0.0 0.1 0.0 0.0 0.0 0.0 0.0 0.0 0.0 0.0 0.0 0.0 0.0 0.0 0.0 0.0 0.0 0.0 0.0 0.0 0.0 0.0 0.0 0.0 0.0 0.0 0.0 0.0 0.0 0.0 0.0 0.0
0.7 0.8 0.2 0.5 1.6 1.2 0.1 1.9 0.2 4.2 0.5 1.5 0.0 0.0 0.0 0.0 0.0 0.0 0.0 0.0 0.0 0.0 0.0 0.0 0.0 0.0 0.0 0.0 0.0 0.0 0.0 0.0 0.0 0.0 0.0 0.0 0.0 0.0 0.0 0.0 0.0 0.0 0.0 0.0
0.1 0.6 0.1 0.0 0.0 0.5 1.1 0.9 3.4 5.1 10.4 5.2 0.1 1.4 2.3 0.0 0.0 0.0 0.0 0.0 0.0 0.0 0.0 0.0 0.0 0.0 0.0 0.0 0.0 0.0 0.0 0.0 0.0 0.0 0.0 0.0 0.0 0.0 0.0 0.0 0.0 0.0 0.0 0.0
0.0 0.3 0.2 0.2 2.3 3.4 1.2 1.5 1.8 1.8 3.9 7.8 4.7 7.9 3.4 1.8 0.7 0.4 0.1 0.0 0.0 0.1 0.0 0.0 0.0 0.0 0.0 0.0 0.0 0.0 0.0 0.0 0.0 0.0 0.0 0.0 0.0 0.0 0.0 0.0 0.0 0.0 0.0 0.0
0.3 0.4 0.4 0.3 1.9 0.6 0.7 2.1 3.5 11.2 5.1 3.2 6.1 9.7 2.2 2.5 1.0 0.5 1.0 0.9 0.1 0.0 0.0 0.0 0.0 0.0 0.0 0.0 0.0 0.0 0.0 0.0 0.0 0.0 0.0 0.0 0.0 0.0 0.0 0.0 0.0 0.0 0.0 0.0
1.6 2.8 3.7 0.7 0.9 0.5 0.9 0.5 2.0 2.9 5.4 6.8 11.0 8.3 1.8 1.9 2.6 1.1 1.4 1.1 0.0 0.0 0.0 0.0 0.0 0.0 0.0 0.0 0.0 0.0 0.0 0.0 0.0 0.0 0.0 0.0 0.0 0.0 0.0 0.1 0.1 0.0 0.0 0.0
0.1 3.6 5.2 6.3 6.9 3.3 2.9 0.9 0.8 7.0 18.4 8.9 5.4 3.9 3.4 4.2 7.3 3.5 2.1 1.8 0.8 0.2 0.1 0.0 0.0 0.0 0.0 0.0 0.0 0.0 0.0 0.0 0.0 0.0 0.0 0.1 0.1 0.2 0.2 0.2 0.2 0.0 0.0 0.0
1.1 9.6 2.9 1.2 0.4 0.3 1.0 2.7 1.3 7.0 8.1 17.8 6.1 8.0 8.4 6.9 7.9 8.3 4.4 3.4 1.7 0.6 0.2 0.0 0.0 0.0 0.0 0.0 0.1 0.1 0.3 0.2 0.2 0.3 0.4 0.8 0.7 0.6 0.5 0.6 0.8 0.7 0.4 0.7
0.8 7.1 4.0 5.2 0.3 1.0 2.6 1.4 1.1 1.5 6.6 7.0 4.9 5.5 6.2 3.6 3.8 5.9 5.4 4.6 3.6 1.8 1.0 0.3 0.0 0.0 0.1 0.2 0.5 0.6 0.8 1.4 1.2 1.2 1.9 1.6 2.1 2.2 2.5 2.4 3.0 1.4 1.8 2.3
1.8 3.7 9.0 10.5 0.4 2.3 17.4 3.8 3.4 3.7 5.6 8.2 16.5 12.9 6.2 4.4 4.3 5.9 5.8 3.7 4.1 3.4 1.5 1.0 1.1 1.2 1.4 1.4 1.6 1.6 2.5 2.0 2.1 2.5 3.6 4.6 3.7 3.9 4.5 3.4 2.5 3.3 3.9 3.0
2.0 4.7 8.8 15.1 6.9 39.2 3.4 1.2 1.5 5.6 3.4 5.2 7.1 8.6 10.0 7.8 4.1 2.3 2.9 4.2 5.5 6.1 3.3 3.5 2.4 2.4 3.0 3.2 2.4 2.7 2.9 2.8 2.7 4.2 4.5 4.1 3.7 4.6 3.6 3.7 4.7 5.9 5.1 5.8
0.0 1.7 21.1 25.8 12.2 4.6 4.0 5.7 7.6 7.6 5.6 3.3 5.3 6.9 8.0 5.4 1.8 2.3 2.5 3.7 6.0 8.5 9.7 5.9 5.3 4.4 4.6 4.0 4.3 3.5 3.6 3.0 3.1 3.9 4.5 4.1 2.3 3.4 2.5 2.5 3.3 5.6 5.7 8.4
0.0 0.4 15.1 24.1 33.4 26.2 9.8 2.3 1.4 3.6 9.1 3.0 2.6 4.8 7.2 6.0 9.9 11.4 5.3 4.0 4.3 5.5 8.1 10.7 8.4 5.3 4.1 4.2 4.3 5.8 7.2 4.5 5.2 6.8 6.0 4.5 5.2 3.7 2.7 2.8 3.6 6.6 5.2 7.1
4.2 8.1 21.0 17.5 37.1 13.6 3.4 4.0 2.2 10.2 15.5 3.9 2.9 3.6 5.3 9.6 8.8 12.4 8.5 8.6 7.1 6.7 6.5 5.3 7.5 9.4 5.9 4.2 4.2 4.7 7.1 9.5 12.4 11.2 11.4 9.4 7.3 6.6 7.9 12.2 7.3 11.0 11.4 10.6
3.5 18.7 25.0 21.0 36.0 31.0 2.4 3.3 6.2 7.8 3.7 2.2 2.5 3.9 3.2 10.6 12.9 13.7 11.5 9.2 6.4 5.4 3.9 2.3 2.4 4.2 6.6 5.4 4.9 5.2 5.3 7.6 6.4 7.6 7.7 8.7 10.2 10.3 10.4 10.0 12.6 14.6 16.1 16.8
15.5 10.9 16.6 12.4 10.6 4.4 2.9 3.8 3.1 2.0 1.8 1.9 1.6 5.1 5.9 10.2 15.1 15.7 13.4 9.4 6.8 4.5 2.9 1.9 1.3 1.8 2.7 2.4 3.3 5.7 7.1 5.2 5.3 5.3 5.7 7.8 7.6 8.5 9.5 10.2 10.8 10.6 9.5 11.4
4.6 1.9 5.5 3.2 3.5 1.8 1.8 1.6 1.5 1.0 1.6 1.9 2.0 2.9 9.7 13.6 15.8 13.6 9.7 7.2 5.2 3.4 3.0 1.7 1.6 1.9 1.9 1.6 2.1 2.5 3.3 3.7 4.7 5.1 5.2 5.4 6.1 7.3 7.8 8.4 9.8 10.5 10.9 10.2
2.1 1.9 3.2 2.4 2.0 0.6 0.7 1.1 1.3 1.9 1.4 2.6 4.1 5.7 6.6 6.4 7.2 6.0 5.5 4.3 2.9 2.4 1.7 0.8 0.8 0.6 0.9 0.6 0.9 1.3 1.1 1.1 1.6 1.9 2.6 3.2 3.7 4.1 4.6 5.6 5.6 5.6 7.1 8.1
3.4 6.6 5.9 6.8 3.5 1.5 2.1 1.6 1.2 4.2 5.9 4.4 3.8 6.6 6.8 4.3 5.3 4.4 5.3 4.4 3.1 2.4 1.6 1.0 0.8 0.5 1.0 0.4 0.5 0.3 0.1 0.2 0.8 0.7 3.6 3.2 1.5 3.5 3.2 6.3 7.8 7.0 6.8 4.5